Hourly Data Report for March 08, 2015

All times are specified in Local Standard Time (LST). Add 1 hour to adjust for Daylight Saving Time where and when it is observed.

MIRAMICHI RCS
NEW BRUNSWICK

47°00'34.000" N
65°27'54.000" W
33.00 m
8100989
71744
ACQ

Download Data

Hourly Data (March 2015)
Hourly Data Report for March 8, 2015
TIME Temp Definition
°C
Dew Point Definition
°C
Rel Hum Definition
%
Wind Dir Definition
10's deg

Wind Spd Definition
km/h
Visibility Definition
km
Stn Press Definition
kPa
Hmdx Definition


Wind Chill Definition


Weather Definition


00:00 -10.5 -14.4 73 27 6   100.78   -14 LegendNANA
01:00 -12.1 -16.2 71 26 6   100.78   -16 LegendNANA
02:00 -11.4 -14.8 76 26 7   100.83   -16 LegendNANA
03:00 -11.5 -14.9 76 26 7   100.82   -16 LegendNANA
04:00 -12.1 -15.3 77 27 10   100.84   -18 LegendNANA
05:00 -12.9 -15.6 80 26 8   100.83   -18 LegendNANA
06:00 -15.3 -17.5 83 26 7   100.89   -20 LegendNANA
07:00 -16.7 -19.5 79 26 3   100.89   -19 LegendNANA
08:00 -16.4 -19.0 81 27 4   100.90   -19 LegendNANA
09:00 -9.2 -13.7 70 26 13   100.93   -15 LegendNANA
10:00 -7.2 -12.7 65 22 10   100.88   -12 LegendNANA
11:00 -4.2 -11.7 56 22 9   100.83   -8 LegendNANA
12:00 -1.8 -11.6 47 24 18   100.77   -7 LegendNANA
13:00 -0.4 -11.8 42 24 9   100.66   -4 LegendNANA
14:00 -0.1 -12.5 39 25 13   100.56   -4 LegendNANA
15:00 -0.3 -11.9 41 27 16   100.54   -5 LegendNANA
16:00 -0.5 -10.6 47 24 21   100.53   -6 LegendNANA
17:00 -0.7 -11.6 44 28 18   100.54   -6 LegendNANA
18:00 -1.6 -11.5 47 30 9   100.60   -5 LegendNANA
19:00 -3.0 -11.2 53 30 6   100.69   -5 LegendNANA
20:00 -3.7 -10.6 59 30 7   100.74   -7 LegendNANA
21:00 -6.4 -11.1 69 26 6   100.80   -9 LegendNANA
22:00 -6.4 -10.7 71 27 8   100.87   -10 LegendNANA
23:00 -7.9 -11.8 74 27 8   100.91   -12 LegendNANA

Notes on Data Quality.

Legend

  • E = Estimated
  • M = Missing
  • NA = Not Available
Date modified: